{"data":{"norad_id":42812,"epoch":"2026-05-25T01:46:59.505312Z","epoch_age_seconds":65647,"freshness":"FRESH","line1":"1 42812U 17039K   26145.07429983  .00000202  00000+0  65060-4 0  9991","line2":"2 42812  86.3986   3.3345 0002080  86.3837 273.7597 14.34219072466517","mean_motion":14.34219072,"eccentricity":0.000208,"inclination_deg":86.3986,"raan_deg":3.3345,"arg_perigee_deg":86.3837,"mean_anomaly_deg":273.7597,"bstar":6.506e-5,"rev_number":46651,"period_min":100.40307147721,"perigee_km":776.17435073318,"apogee_km":779.15116343212,"semimajor_km":7155.7997570826,"source":"CELESTRAK","updated_at":"2026-05-25T13:38:14.801755Z"}}